Weather History for PAHO - November, 2013

Change the Weather History Date:

Monday, November 11, 2013

  Actual Average Record
Temperature  
Mean Temperature 32 °F -  
Max Temperature 37 °F 36 °F 53 °F (2014)
Min Temperature 28 °F 24 °F 1 °F (1989)
Degree Days  
Heating Degree Days 32    
Moisture  
Dew Point 20 °F    
Average Humidity 58    
Maximum Humidity 85    
Minimum Humidity 41    
Precipitation  
Precipitation 0.00 in - - ()
Sea Level Pressure  
Sea Level Pressure 30.01 in    
Wind  
Wind Speed 6 mph (NE)    
Max Wind Speed 14 mph    
Max Gust Speed 24 mph    
Visibility 10 miles    
Events      
Averages and records for this station are not official NWS values.
T = Trace of Precipitation, MM = Missing Value Source: NWS Daily Summary

Daily Weather History Graph

Daily Weather History Graph

Search for Another Location

Airport or City:

Trip Planner

Search our weather history database for the weather conditions in past years. The results will help you decide how hot, cold, wet, or windy it might be!

Date:

Astronomy

Nov. 11, 2013 Rise Set
Actual Time 8:53 AM AKST 4:46 PM AKST
Civil Twilight 8:05 AM AKST 5:33 PM AKST
Nautical Twilight 7:15 AM AKST 6:23 PM AKST
Astronomical Twilight 6:26 AM AKST 7:12 PM AKST
Moon 2:50 PM AKST (11/11) 1:22 AM AKST (11/11)
Length of Visible Light 9h 27m
Length of Day
7h 53m
Waxing Gibbous, 68% of the Moon is Illuminated
Nov 11
Waxing Gibbous
Nov 17
Full
Nov 25
Last Quarter
Dec 2
New
Dec 9
First Quarter

Hourly Weather History & Observations

Time (AKST) Temp. Windchill Dew Point Humidity Pressure Visibility Wind Dir Wind Speed Gust Speed Precip Events Conditions
12:53 AM 36.0 °F 32.1 °F 30.0 °F 79% 29.87 in 10.0 mi NNE 4.6 mph - N/A   Overcast
1:53 AM 36.0 °F - 30.9 °F 82% 29.88 in 10.0 mi Calm Calm - N/A   Overcast
3:53 AM 35.1 °F 32.2 °F 30.9 °F 85% 29.91 in 10.0 mi NNW 3.5 mph - N/A   Overcast
4:53 AM 36.0 °F - 30.0 °F 79% 29.92 in 10.0 mi Calm Calm - 0.00 in   Overcast
5:53 AM 37.0 °F - 28.9 °F 73% 29.93 in 10.0 mi Calm Calm - N/A   Overcast
6:53 AM 35.1 °F 30.1 °F 28.0 °F 76% 29.94 in 10.0 mi ENE 5.8 mph - N/A   Overcast
7:53 AM 34.0 °F 28.8 °F 26.1 °F 73% 29.96 in 10.0 mi NNE 5.8 mph - N/A   Mostly Cloudy
8:53 AM 34.0 °F 27.2 °F 25.0 °F 70% 29.98 in 10.0 mi ENE 8.1 mph - N/A   Mostly Cloudy
9:53 AM 35.1 °F 29.3 °F 26.1 °F 70% 29.99 in 10.0 mi NE 6.9 mph - N/A   Mostly Cloudy
10:53 AM 35.1 °F 26.9 °F 21.0 °F 57% 30.01 in 10.0 mi NE 11.5 mph - N/A   Scattered Clouds
11:53 AM 35.1 °F 27.9 °F 19.0 °F 52% 30.02 in 10.0 mi NE 9.2 mph - N/A   Scattered Clouds
12:53 PM 36.0 °F 31.1 °F 17.1 °F 46% 30.03 in 10.0 mi Variable 5.8 mph - N/A   Scattered Clouds
1:53 PM 37.0 °F 30.4 °F 17.1 °F 44% 30.03 in 10.0 mi NE 9.2 mph - N/A   Clear
2:53 PM 36.0 °F 27.5 °F 16.0 °F 44% 30.03 in 10.0 mi NNE 12.7 mph 20.7 mph N/A   Clear
3:53 PM 35.1 °F 25.9 °F 15.1 °F 44% 30.04 in 10.0 mi NNE 13.8 mph 21.9 mph N/A   Clear
4:53 PM 33.1 °F 24.9 °F 15.1 °F 48% 30.05 in 10.0 mi NE 10.4 mph - N/A   Clear
5:53 PM 32.0 °F 22.5 °F 15.1 °F 50% 30.06 in 10.0 mi NE 12.7 mph - N/A   Clear
6:53 PM 32.0 °F 24.8 °F 15.1 °F 50% 30.06 in 10.0 mi ENE 8.1 mph 24.2 mph N/A   Clear
7:53 PM 32.0 °F 23.6 °F 12.0 °F 44% 30.07 in 10.0 mi NE 10.4 mph 18.4 mph N/A   Clear
8:53 PM 30.9 °F 23.5 °F 10.9 °F 43% 30.08 in 10.0 mi NE 8.1 mph - N/A   Clear
9:53 PM 30.0 °F 21.1 °F 9.0 °F 41% 30.10 in 10.0 mi ENE 10.4 mph - N/A   Clear
10:53 PM 28.9 °F 23.9 °F 10.0 °F 45% 30.09 in 10.0 mi Variable 4.6 mph - N/A   Clear
11:53 PM 28.9 °F 21.1 °F 10.9 °F 47% 30.11 in 10.0 mi ENE 8.1 mph - N/A   Clear